User: anonymous   Login
Location: Possagno
(45.8500°N, 11.8667°E)
Time: 15:57:56
(UTC+00:00)
Language:

Resurs 1-4 Rocket - Orbit

View from above orbital plane
View from above orbital plane
View from above satellite
View from above satellite

Ground track
Ground track

The orbit data is extracted from the following two-line orbital elements,

1 25400U 98043G   20225.44707961 -.00000024  00000-0  80768-5 0  9995
2 25400  98.6081 160.3479 0010085 165.5694 194.5776 14.25458846149229
Epoch (UTC): 12 August 2020 10:43:47
Eccentricity: 0.0010085
inclination: 98.6081°
perigee height: 800 km
apogee height: 814 km
right ascension of ascending node: 160.3479°
argument of perigee: 165.5694°
revolutions per day: 14.25458846
mean anomaly at epoch: 194.5776°
orbit number at epoch: 14922

The dashed part of the orbit path shows where the satellite is in the earth's shadow,  

DLR